TIME,DELAY(SENSOR),PRES,OXYGEN,RAWTEMP,T(OPTODE),TCPHASE,FLUOR,BETA(BETA700),BETA(BETA412),BETA(BETA440),CDOM,C(CSC),ED(ED412.20),ED(ED444.00),ED(ED489.60),ED(ED554.30),LU(LU412.10),LU(LU443.90),LU(LU489.70),LU(LU554.70),COMP,TILTX,TILTY,CHECK
1333683598,5809,873.2100219726562000,41.1584510803222660,560.1798095703125000,4.4803237915039060,55.3387107849121100,55,108,102,80,84,15443,0,0,0,0,2147126381,2147777526,2147572288,2147571702,891,2,13,11656
1333687194,5810,966.2100219726562000,43.7252998352050800,566.5648193359375000,4.2822608947753910,55.0366096496582000,55,136,103,79,81,15450,0,0,0,0,2147126217,2147778596,2147572041,2147573613,217,2,13,7736
1333690794,5809,985.4099731445312000,45.0754814147949200,568.8732910156250000,4.2105669975280760,54.8689193725585940,55,102,102,78,84,15448,0,0,0,0,2147124909,2147776137,2147576192,2147571190,367,2,13,5161
1333694394,5807,991.0300292968750000,45.3166809082031250,570.7725830078125000,4.1515479087829590,54.8508186340332000,55,106,102,79,82,15445,0,0,0,0,2147122971,2147778870,2147570002,2147574875,594,2,13,34063
1333697994,5808,990.0999755859375000,45.6831016540527340,571.6375122070312000,4.1246619224548340,54.8099403381347660,56,115,103,79,84,15440,0,0,0,0,2147123748,2147777033,2147572150,2147574134,325,2,13,39131
1333701594,5809,995.3300170898438000,45.4666213989257800,572.5377197265625000,4.0966720581054690,54.8530006408691400,54,101,102,78,83,15444,0,0,0,0,2147123318,2147777618,2147574848,2147569801,107,2,13,34414
1333705194,5807,995.4799804687500000,45.8645706176757800,572.5941162109375000,4.0949211120605470,54.7961883544921900,55,100,101,79,83,15426,0,0,0,0,2147127533,2147777700,2147575597,2147571062,144,2,13,22900
1333708794,5810,993.7500000000000000,46.1897010803222660,573.4525146484375000,4.0682239532470700,54.7613792419433600,54,103,101,78,84,15424,0,0,0,0,2147126674,2147775625,2147573348,2147573238,160,2,13,37941
1333712394,5807,996.0800170898438000,45.2392616271972660,572.6389160156250000,4.0935268402099610,54.8842391967773440,55,100,102,79,83,15425,0,0,0,0,2147127277,2147776219,2147577234,2147572114,413,2,13,21526
1333715994,5809,1003.2100219726562000,45.8123817443847660,572.4244995117188000,4.1001930236816410,54.8046607971191400,55,105,103,78,84,15424,0,0,0,0,2147125906,2147777682,2147572306,2147572827,3287,2,13,54620
1333719594,5808,1007.1599731445312000,45.9788093566894500,572.3519897460938000,4.1024479866027830,54.7806015014648440,54,102,102,78,84,15424,0,0,0,0,2147123922,2147784137,2147576402,2147573540,320,2,13,22426
1333723194,5812,1006.8900146484375000,45.9350090026855500,572.3809204101562000,4.1015491485595700,54.7864990234375000,54,99,103,78,83,15423,0,0,0,0,2147126372,2147781869,2147581860,2147572370,3515,2,13,22245
1333726794,5810,1004.4799804687500000,45.0762405395507800,571.6785888671875000,4.1233839988708500,54.8987007141113300,55,102,102,79,83,15420,0,0,0,0,2147124480,2147777170,2147576448,2147573513,134,2,13,63496
1333730394,5811,1012.0300292968750000,45.2055702209472660,571.8239746093750000,4.1188659667968750,54.8834495544433600,55,102,102,78,83,15420,0,0,0,0,2147122953,2147774537,2147576301,2147575926,3,2,13,43243
1333733994,5809,1022.8200073242188000,45.6130409240722660,571.2664794921875000,4.1361961364746090,54.8194694519043000,55,103,102,80,83,15417,0,0,0,0,2147124068,2147783213,2147575049,2147573220,90,2,13,26444
1333737594,5810,1008.9799804687500000,44.4909095764160160,570.7902832031250000,4.1509990692138670,54.9707412719726560,55,102,101,79,84,15410,0,0,0,0,2147124681,2147781202,2147573001,2147576228,371,2,13,30763
1333741194,5810,1007.8499755859375000,44.2834892272949200,572.0178222656250000,4.1128411293029785,55.0123100280761700,55,103,110,78,85,15420,0,0,0,0,2147126765,2147780498,2147576146,2147573668,163,2,13,47883
1333744794,5812,1004.1099853515625000,44.5991706848144500,572.5034790039062000,4.0977358818054200,54.9724807739257800,54,104,107,79,84,15413,0,0,0,0,2147124736,2147778962,2147576146,2147570934,199,2,13,64241
1333748394,5809,1006.9799804687500000,45.5593109130859400,572.1063232421875000,4.1100859642028810,54.8385581970214840,55,101,102,79,84,15405,0,0,0,0,2147125549,2147779483,2147575533,2147574390,240,2,13,6103
1333751994,5808,1015.0399780273438000,45.3790588378906250,571.3347167968750000,4.1340770721435550,54.8495407104492200,55,102,101,80,83,15413,0,0,0,0,2147124726,2147776621,2147570185,2147574052,138,2,13,21460
1333755594,5813,1021.3200073242188000,44.9747390747070300,570.9578247070312000,4.1457939147949220,54.9018287658691400,55,102,102,79,84,15411,0,0,0,0,2147124598,2147779401,2147573302,2147575286,333,2,13,48792
1333759194,5811,1029.5300292968750000,44.3079910278320300,570.5513916015625000,4.1584239006042480,54.9928398132324200,54,103,101,79,83,15398,0,0,0,0,2147125979,2147773961,2147576530,2147576173,3358,2,13,7646
1333762794,5810,1019.0800170898438000,43.4368705749511700,570.7349853515625000,4.1527180671691895,55.1207695007324200,55,101,104,81,84,15396,0,0,0,0,2147123145,2147778569,2147573001,2147573952,606,2,13,48548
1333766394,5807,1020.3900146484375000,43.8756217956543000,570.8948974609375000,4.1477489471435550,55.0635414123535160,56,122,105,80,84,15391,0,0,0,0,2147123026,2147779181,2147575378,2147569371,381,2,13,46950
1333769994,5810,1027.6500244140625000,45.1123390197753900,570.7996826171875000,4.1507067680358890,54.8827514648437500,54,102,103,78,83,15367,0,0,0,0,2147124580,2147777225,2147573833,2147571062,3595,2,13,17050
1333773594,5810,1011.3900146484375000,44.9449005126953100,571.1520996093750000,4.1397528648376465,54.9102287292480500,55,105,101,81,84,15389,0,0,0,0,2147123638,2147780032,2147578121,2147573211,160,2,13,41762
1333777194,5809,994.9400024414062000,44.2799987792968750,572.4987792968750000,4.0978832244873050,55.0219383239746100,56,102,103,80,85,15391,0,0,0,0,2147125357,2147780132,2147575040,2147569124,231,2,13,28668
1333780794,5808,994.5999755859375000,45.6830482482910160,575.2697753906250000,4.0116829872131350,54.8523406982421900,55,103,102,78,83,15392,0,0,0,0,2147127652,2147777472,2147574921,2147570249,537,2,13,11349
1333784394,5810,992.5200195312500000,46.3080787658691400,575.6613769531250000,3.9994928836822510,54.7670097351074200,54,102,104,79,83,15390,0,0,0,0,2147124918,2147779638,2147580096,2147571428,460,2,13,22025
1333787994,5809,1005.6500244140625000,46.3616981506347660,575.3259277343750000,4.0099349021911620,54.7590484619140600,56,102,102,79,84,15389,0,0,0,0,2147128365,2147776347,2147570697,2147572544,187,2,13,63912
1333791594,5810,1018.7500000000000000,46.4642181396484400,573.4608154296875000,4.0679631233215330,54.7259483337402340,55,105,102,78,83,15388,0,0,0,0,2147126610,2147780315,2147576429,2147571117,1909,2,13,54952
1333795194,5810,1013.6300048828125000,45.8283615112304700,573.6707763671875000,4.0614299774169920,54.8141593933105500,55,100,102,80,84,15380,0,0,0,0,2147123803,2147781750,2147575323,2147571739,952,2,13,59101
1333798794,5810,1013.3300170898438000,45.2799415588378900,574.0126953125000000,4.0507969856262210,54.8969116210937500,55,101,103,79,83,15381,0,0,0,0,2147125513,2147778102,2147575817,2147572059,1907,2,13,47571
1333802394,5807,1016.2600097656250000,45.1725311279296900,574.6168823242188000,4.0320000648498535,54.9183311462402340,55,101,102,78,83,15375,0,0,0,0,2147127936,2147784228,2147573750,2147571739,671,2,13,5224
1333805994,5808,1020.2399902343750000,44.5143203735351560,574.7584838867188000,4.0275921821594240,55.0140190124511700,55,105,102,77,84,15375,0,0,0,0,2147123538,2147780132,2147574912,2147575204,162,2,13,43695
1333809594,5808,1012.2199707031250000,44.2947082519531250,574.3964843750000000,4.0388569831848145,55.0430488586425800,55,100,102,78,85,15363,0,0,0,0,2147125686,2147778304,2147569910,2147571940,211,2,13,26253
1333813194,5810,1004.1500244140625000,46.0717010498046900,575.1572875976562000,4.0151820182800290,54.7954788208007800,56,105,102,79,83,15362,0,0,0,0,2147123126,2147776923,2147571876,2147573284,464,2,13,32476
1333816794,5812,1005.1199951171875000,45.0756912231445300,575.9794921875000000,3.9895939826965330,54.9436988830566400,55,102,103,78,83,15351,0,0,0,0,2147129929,2147779117,2147574089,2147573458,444,2,13,47201
1333820394,5811,1011.4099731445312000,46.6798095703125000,575.7160034179688000,3.9977929592132570,54.7174301147460940,55,102,102,78,84,15358,0,0,0,0,2147128429,2147774939,2147575323,2147572425,3091,2,13,21150
1333823994,5812,1012.3300170898438000,46.4660606384277340,574.2227783203125000,4.0442600250244140,54.7297897338867200,55,121,102,79,83,15354,0,0,0,0,2147124681,2147777106,2147569874,2147572717,53,2,13,6486
1333827594,5808,1014.1400146484375000,46.3339118957519500,573.6179199218750000,4.0630760192871090,54.7443504333496100,55,102,103,79,82,15349,0,0,0,0,2147125897,2147778678,2147572315,2147576045,363,2,13,20157
1333828256,5807,1011.2800292968750000,46.1906700134277340,573.6740112304688000,4.0613307952880860,54.7638893127441400,54,103,101,79,83,15346,0,0,0,0,2147125248,2147779574,2147574061,2147573238,369,2,13,7583
